Location: Oshawa
(43.9000°N, 78.8670°W)
Time: 11:55:37
(UTC-04:00)

Iridium 98 - Visible Passes

Search period start: 01 August 2014 00:00
Search period end: 11 August 2014 00:00
Orbit: 747 x 750 km, 86.4° (Epoch: 31 July)

Date Brightness Start Highest point End Pass type
(mag) Time Alt. Az. Time Alt. Az. Time Alt. Az.
01 Aug 7.5 21:21:03 10° ENE 21:22:10 11° ENE 21:23:16 10° E visible
01 Aug 5.4 22:57:58 10° N 23:03:03 88° E 23:04:51 41° S visible
02 Aug 8.0 00:41:06 10° WNW 00:42:20 11° WNW 00:43:34 10° W visible
02 Aug 6.0 22:16:08 10° NNE 22:20:54 40° E 22:23:02 27° SE visible
02 Aug 7.3 23:56:46 10° NNW 00:00:45 24° W 00:02:54 18° WSW visible
03 Aug 7.0 21:34:56 10° NNE 21:38:32 19° ENE 21:41:12 13° ESE visible
03 Aug 6.1 23:14:04 10° NNW 23:18:58 51° W 23:21:05 31° SW visible
04 Aug 5.4 22:31:54 10° N 22:36:58 73° E 22:39:16 33° SSE visible
05 Aug 7.9 00:13:59 10° NW 00:16:23 14° WNW 00:18:48 10° WSW visible
05 Aug 6.3 21:50:11 10° NNE 21:54:46 33° E 21:57:28 20° SE visible
05 Aug 7.1 23:30:27 10° NNW 23:34:45 29° W 23:37:20 19° SW visible
06 Aug 7.2 21:09:16 10° NE 21:12:19 16° ENE 21:15:22 10° ESE visible
06 Aug 5.8 22:47:54 10° N 22:52:55 63° W 22:55:33 28° SSW visible
07 Aug 5.5 22:05:51 10° N 22:10:52 59° E 22:13:47 24° SSE visible
07 Aug 7.9 23:47:19 10° NW 23:50:26 17° WNW 23:53:32 10° WSW visible
08 Aug 6.5 21:24:17 10° NNE 21:28:36 27° ENE 21:32:02 14° SE visible
08 Aug 6.8 23:04:10 10° NNW 23:08:44 35° W 23:11:54 18° SW visible
09 Aug 5.5 22:21:46 10° N 22:26:51 77° W 22:30:10 22° S visible
10 Aug 5.7 21:39:49 10° N 21:44:44 48° E 21:48:27 17° SSE visible
10 Aug 7.7 23:20:50 10° NNW 23:24:27 20° W 23:28:04 10° SW visible
